Location: Bishop�s Knoyle
(51.0728°N, 2.1714°W)
Time: 21:41:32
(UTC+00:00)

Envisat - Pass Details

Date: 19 September 2021
Orbit: 764 x 766 km, 98.2° (Epoch: 15 October)

Event Time Altitude Azimuth Distance (km) Brightness Sun altitude
Rises 04:18:59 0° 24° (NNE) 3,245 7.0 -14.8°
Reaches altitude 10° 04:21:47 10° 39° (NE) 2,313 6.4 -14.4°
Maximum altitude 04:25:46 23° 91° (E) 1,602 5.6 -13.8°
Drops below altitude 10° 04:29:43 10° 142° (SE) 2,298 5.7 -13.2°
Sets 04:32:29 0° 157° (SSE) 3,219 6.3 -12.8°
